Time,TemperatureF,DewpointF,PressureIn,WindDirection,WindDirectionDegrees,WindSpeedMPH,WindSpeedGustMPH,Humidity,HourlyPrecipIn,Conditions,Clouds,dailyrainin,SoftwareType,DateUTC
2013-04-30 00:04:00,72.1,59.7,28.86,SSW,192,0.0,1.0,65,0.00,,---,0.00,VWS V12.08,2013-04-30 05:04:00,
2013-04-30 00:09:00,72.3,59.9,28.85,South,180,0.0,1.0,65,0.00,,---,0.00,VWS V12.08,2013-04-30 05:09:00,
2013-04-30 00:14:00,72.3,59.9,28.86,SSE,165,0.0,2.0,65,0.00,,---,0.00,VWS V12.08,2013-04-30 05:14:00,
2013-04-30 00:20:00,72.4,60.0,28.87,SW,215,0.0,2.0,65,0.00,,---,0.00,VWS V12.08,2013-04-30 05:20:00,
2013-04-30 00:26:00,72.4,60.0,28.87,WSW,239,1.0,2.0,65,0.00,,---,0.00,VWS V12.08,2013-04-30 05:26:00,
2013-04-30 00:31:00,72.5,59.6,28.87,South,185,0.0,1.0,64,0.00,,---,0.00,VWS V12.08,2013-04-30 05:31:00,
2013-04-30 00:36:00,72.5,59.6,28.87,SW,220,0.0,2.0,64,0.00,,---,0.00,VWS V12.08,2013-04-30 05:36:00,
2013-04-30 00:41:00,72.6,59.3,28.87,SW,216,0.0,2.0,63,0.00,,---,0.00,VWS V12.08,2013-04-30 05:41:00,
2013-04-30 00:46:00,72.8,59.5,28.87,SSW,198,0.0,2.0,63,0.00,,---,0.00,VWS V12.08,2013-04-30 05:46:00,
2013-04-30 00:52:00,72.9,59.1,28.88,SW,228,1.0,2.0,62,0.00,,---,0.00,VWS V12.08,2013-04-30 05:52:00,
2013-04-30 00:57:00,73.1,58.9,28.88,SW,221,0.0,2.0,61,0.00,,---,0.00,VWS V12.08,2013-04-30 05:57:00,
2013-04-30 01:03:00,73.2,58.0,28.87,South,185,0.0,1.0,59,0.00,,---,0.00,VWS V12.08,2013-04-30 06:03:00,
2013-04-30 01:08:00,73.4,57.7,28.87,WSW,243,0.0,3.0,58,0.00,,---,0.00,VWS V12.08,2013-04-30 06:08:00,
2013-04-30 01:13:00,73.5,57.8,28.87,SW,221,0.0,3.0,58,0.00,,---,0.00,VWS V12.08,2013-04-30 06:13:00,
2013-04-30 01:19:00,73.7,57.5,28.87,SW,226,0.0,3.0,57,0.00,,---,0.00,VWS V12.08,2013-04-30 06:19:00,
2013-04-30 01:25:00,73.8,57.1,28.87,SW,220,2.0,3.0,56,0.00,,---,0.00,VWS V12.08,2013-04-30 06:25:00,
2013-04-30 01:30:00,73.9,56.7,28.87,SSW,202,1.0,1.0,55,0.00,,---,0.00,VWS V12.08,2013-04-30 06:30:00,
2013-04-30 01:35:00,74.0,56.8,28.88,South,177,0.0,1.0,55,0.00,,---,0.00,VWS V12.08,2013-04-30 06:35:00,
2013-04-30 01:44:00,73.9,56.7,28.89,SW,227,0.0,2.0,55,0.00,,---,0.00,VWS V12.08,2013-04-30 06:44:00,
2013-04-30 01:53:00,74.0,56.3,28.88,South,170,0.0,2.0,54,0.00,,---,0.00,VWS V12.08,2013-04-30 06:53:00,
2013-04-30 01:58:00,74.0,56.3,28.88,South,182,0.0,2.0,54,0.00,,---,0.00,VWS V12.08,2013-04-30 06:58:00,
2013-04-30 02:04:00,73.9,56.2,28.88,South,169,0.0,2.0,54,0.00,,---,0.00,VWS V12.08,2013-04-30 07:04:00,
2013-04-30 02:09:00,73.8,56.1,28.88,SW,221,0.0,2.0,54,0.00,,---,0.00,VWS V12.08,2013-04-30 07:09:00,
2013-04-30 02:14:00,73.6,56.0,28.88,SSE,163,0.0,2.0,54,0.00,,---,0.00,VWS V12.08,2013-04-30 07:14:00,
2013-04-30 02:19:00,73.5,55.9,28.87,SSW,207,1.0,2.0,54,0.00,,---,0.00,VWS V12.08,2013-04-30 07:19:00,
2013-04-30 02:24:00,73.4,55.8,28.87,South,174,0.0,2.0,54,0.00,,---,0.00,VWS V12.08,2013-04-30 07:24:00,
2013-04-30 02:29:00,73.3,55.7,28.87,SSW,201,0.0,2.0,54,0.00,,---,0.00,VWS V12.08,2013-04-30 07:29:00,
2013-04-30 02:34:00,73.2,56.1,28.88,SW,234,0.0,2.0,55,0.00,,---,0.00,VWS V12.08,2013-04-30 07:34:00,
2013-04-30 02:39:00,73.2,56.1,28.88,South,191,0.0,3.0,55,0.00,,---,0.00,VWS V12.08,2013-04-30 07:39:00,
2013-04-30 02:45:00,73.2,56.1,28.87,South,187,0.0,3.0,55,0.00,,---,0.00,VWS V12.08,2013-04-30 07:45:00,
2013-04-30 02:50:00,73.1,55.5,28.87,SW,229,2.0,3.0,54,0.00,,---,0.00,VWS V12.08,2013-04-30 07:50:00,
2013-04-30 02:55:00,73.1,55.5,28.87,WSW,249,1.0,5.0,54,0.00,,---,0.00,VWS V12.08,2013-04-30 07:55:00,
2013-04-30 03:00:00,73.1,55.5,28.87,South,180,0.0,1.0,54,0.00,,---,0.00,VWS V12.08,2013-04-30 08:00:00,
2013-04-30 03:05:00,73.1,55.5,28.87,SW,214,1.0,3.0,54,0.00,,---,0.00,VWS V12.08,2013-04-30 08:05:00,
2013-04-30 03:11:00,73.1,55.5,28.87,SSW,196,0.0,4.0,54,0.00,,---,0.00,VWS V12.08,2013-04-30 08:11:00,
2013-04-30 03:16:00,73.1,55.0,28.86,South,180,0.0,4.0,53,0.00,,---,0.00,VWS V12.08,2013-04-30 08:16:00,
2013-04-30 03:21:00,73.0,54.9,28.86,SW,220,1.0,4.0,53,0.00,,---,0.00,VWS V12.08,2013-04-30 08:21:00,
2013-04-30 03:26:00,73.0,54.9,28.87,SW,233,0.0,5.0,53,0.00,,---,0.00,VWS V12.08,2013-04-30 08:26:00,
2013-04-30 03:31:00,73.0,54.9,28.87,SSW,199,0.0,3.0,53,0.00,,---,0.00,VWS V12.08,2013-04-30 08:31:00,
2013-04-30 03:36:00,72.8,55.7,28.87,SW,229,2.0,3.0,55,0.00,,---,0.00,VWS V12.08,2013-04-30 08:36:00,
2013-04-30 03:42:00,72.6,55.0,28.88,SW,236,0.0,8.0,54,0.00,,---,0.00,VWS V12.08,2013-04-30 08:42:00,
2013-04-30 03:47:00,72.6,55.0,28.87,WSW,243,1.0,8.0,54,0.00,,---,0.00,VWS V12.08,2013-04-30 08:47:00,
2013-04-30 03:53:00,72.8,54.7,28.87,South,183,1.0,8.0,53,0.00,,---,0.00,VWS V12.08,2013-04-30 08:53:00,
2013-04-30 03:59:00,72.8,54.7,28.87,SSW,205,0.0,8.0,53,0.00,,---,0.00,VWS V12.08,2013-04-30 08:59:00,
2013-04-30 04:05:00,72.7,54.6,28.88,WSW,242,0.0,3.0,53,0.00,,---,0.00,VWS V12.08,2013-04-30 09:05:00,
2013-04-30 04:10:00,72.6,55.0,28.89,SSW,213,1.0,4.0,54,0.00,,---,0.00,VWS V12.08,2013-04-30 09:10:00,
2013-04-30 04:15:00,72.5,54.9,28.89,SW,232,1.0,10.0,54,0.00,,---,0.00,VWS V12.08,2013-04-30 09:15:00,
2013-04-30 04:21:00,71.9,55.4,28.89,SW,225,1.0,10.0,56,0.00,,---,0.00,VWS V12.08,2013-04-30 09:21:00,
2013-04-30 04:26:00,71.7,55.2,28.89,SSE,165,0.0,10.0,56,0.00,,---,0.00,VWS V12.08,2013-04-30 09:26:00,
2013-04-30 04:31:00,71.7,55.2,28.89,SSW,196,0.0,2.0,56,0.00,,---,0.00,VWS V12.08,2013-04-30 09:31:00,
2013-04-30 04:36:00,71.6,55.1,28.89,South,185,0.0,2.0,56,0.00,,---,0.00,VWS V12.08,2013-04-30 09:36:00,
2013-04-30 04:41:00,71.5,55.0,28.89,SSW,213,0.0,2.0,56,0.00,,---,0.00,VWS V12.08,2013-04-30 09:41:00,
2013-04-30 04:46:00,71.4,54.9,28.89,South,175,0.0,2.0,56,0.00,,---,0.00,VWS V12.08,2013-04-30 09:46:00,
2013-04-30 04:52:00,71.3,54.8,28.89,South,185,0.0,2.0,56,0.00,,---,0.00,VWS V12.08,2013-04-30 09:52:00,
2013-04-30 04:57:00,71.1,54.6,28.89,SSW,193,0.0,4.0,56,0.00,,---,0.00,VWS V12.08,2013-04-30 09:57:00,
2013-04-30 05:02:00,71.0,54.5,28.89,West,260,0.0,3.0,56,0.00,,---,0.00,VWS V12.08,2013-04-30 10:02:00,
2013-04-30 05:07:00,70.8,54.8,28.90,SSW,192,0.0,3.0,57,0.00,,---,0.00,VWS V12.08,2013-04-30 10:07:00,
2013-04-30 05:13:00,70.7,54.7,28.90,SSW,200,0.0,3.0,57,0.00,,---,0.00,VWS V12.08,2013-04-30 10:13:00,
2013-04-30 05:18:00,70.5,54.5,28.89,SSW,196,0.0,3.0,57,0.00,,---,0.00,VWS V12.08,2013-04-30 10:18:00,
2013-04-30 05:24:00,70.4,54.5,28.90,WSW,251,0.0,4.0,57,0.00,,---,0.00,VWS V12.08,2013-04-30 10:24:00,
2013-04-30 05:30:00,70.4,54.5,28.90,WSW,241,0.0,5.0,57,0.00,,---,0.00,VWS V12.08,2013-04-30 10:30:00,
2013-04-30 05:35:00,70.5,54.5,28.89,WSW,237,0.0,5.0,57,0.00,,---,0.00,VWS V12.08,2013-04-30 10:35:00,
2013-04-30 05:40:00,70.4,54.5,28.90,South,185,0.0,5.0,57,0.00,,---,0.00,VWS V12.08,2013-04-30 10:40:00,
2013-04-30 05:45:00,70.4,54.5,28.90,WSW,257,1.0,5.0,57,0.00,,---,0.00,VWS V12.08,2013-04-30 10:45:00,
2013-04-30 05:50:00,70.4,54.0,28.90,SSW,212,0.0,5.0,56,0.00,,---,0.00,VWS V12.08,2013-04-30 10:50:00,
2013-04-30 05:56:00,70.3,54.4,28.91,West,263,0.0,5.0,57,0.00,,---,0.00,VWS V12.08,2013-04-30 10:56:00,
2013-04-30 06:01:00,70.2,54.3,28.91,West,260,0.0,1.0,57,0.00,,---,0.00,VWS V12.08,2013-04-30 11:01:00,
2013-04-30 06:06:00,70.1,54.2,28.91,South,187,0.0,3.0,57,0.00,,---,0.00,VWS V12.08,2013-04-30 11:06:00,
2013-04-30 06:11:00,70.0,54.1,28.91,SSW,206,1.0,3.0,57,0.00,,---,0.00,VWS V12.08,2013-04-30 11:11:00,
2013-04-30 06:17:00,69.8,53.9,28.91,SW,235,0.0,3.0,57,0.00,,---,0.00,VWS V12.08,2013-04-30 11:17:00,
2013-04-30 06:22:00,69.5,54.1,28.91,South,188,0.0,3.0,58,0.00,,---,0.00,VWS V12.08,2013-04-30 11:22:00,
2013-04-30 06:27:00,69.4,54.0,28.92,SW,216,0.0,3.0,58,0.00,,---,0.00,VWS V12.08,2013-04-30 11:27:00,
2013-04-30 06:32:00,69.2,54.3,28.91,WNW,285,0.0,4.0,59,0.00,,---,0.00,VWS V12.08,2013-04-30 11:32:00,
2013-04-30 06:37:00,69.1,54.2,28.92,SSE,160,0.0,4.0,59,0.00,,---,0.00,VWS V12.08,2013-04-30 11:37:00,
2013-04-30 06:43:00,69.1,54.2,28.92,South,190,0.0,4.0,59,0.00,,---,0.00,VWS V12.08,2013-04-30 11:43:00,
2013-04-30 06:48:00,69.1,54.2,28.92,SW,223,0.0,4.0,59,0.00,,---,0.00,VWS V12.08,2013-04-30 11:48:00,
2013-04-30 06:54:00,69.1,54.2,28.93,South,170,0.0,4.0,59,0.00,,---,0.00,VWS V12.08,2013-04-30 11:54:00,
2013-04-30 07:00:00,69.2,53.8,28.92,SSW,205,0.0,4.0,58,0.00,,---,0.00,VWS V12.08,2013-04-30 12:00:00,
2013-04-30 07:05:00,69.3,53.9,28.92,South,187,1.0,4.0,58,0.00,,---,0.00,VWS V12.08,2013-04-30 12:05:00,
2013-04-30 07:11:00,69.3,53.9,28.93,WSW,244,0.0,4.0,58,0.00,,---,0.00,VWS V12.08,2013-04-30 12:11:00,
2013-04-30 07:16:00,69.3,53.9,28.93,South,186,1.0,4.0,58,0.00,,---,0.00,VWS V12.08,2013-04-30 12:16:00,
2013-04-30 07:22:00,69.6,54.2,28.93,SSW,209,0.0,4.0,58,0.00,,---,0.00,VWS V12.08,2013-04-30 12:22:00,
2013-04-30 07:27:00,69.7,53.8,28.94,SSW,210,1.0,4.0,57,0.00,,---,0.00,VWS V12.08,2013-04-30 12:27:00,
2013-04-30 07:32:00,69.9,54.0,28.94,WSW,239,1.0,2.0,57,0.00,,---,0.00,VWS V12.08,2013-04-30 12:32:00,
2013-04-30 07:37:00,70.0,53.6,28.94,South,190,0.0,3.0,56,0.00,,---,0.00,VWS V12.08,2013-04-30 12:37:00,
2013-04-30 07:42:00,70.2,53.3,28.94,SW,214,1.0,4.0,55,0.00,,---,0.00,VWS V12.08,2013-04-30 12:42:00,
2013-04-30 07:47:00,70.5,53.6,28.94,SW,215,0.0,4.0,55,0.00,,---,0.00,VWS V12.08,2013-04-30 12:47:00,
2013-04-30 07:52:00,70.7,53.3,28.94,SW,235,0.0,10.0,54,0.00,,---,0.00,VWS V12.08,2013-04-30 12:52:00,
2013-04-30 07:58:00,71.0,53.0,28.94,SSE,161,0.0,10.0,53,0.00,,---,0.00,VWS V12.08,2013-04-30 12:58:00,
2013-04-30 08:03:00,71.3,52.8,28.94,WSW,242,0.0,5.0,52,0.00,,---,0.00,VWS V12.08,2013-04-30 13:03:00,
2013-04-30 08:09:00,71.7,52.6,28.94,SW,229,1.0,5.0,51,0.00,,---,0.00,VWS V12.08,2013-04-30 13:09:00,
2013-04-30 08:14:00,71.9,52.3,28.94,SSE,156,0.0,6.0,50,0.00,,---,0.00,VWS V12.08,2013-04-30 13:14:00,
2013-04-30 08:19:00,72.0,51.8,28.94,WSW,242,0.0,6.0,49,0.00,,---,0.00,VWS V12.08,2013-04-30 13:19:00,
2013-04-30 08:25:00,72.4,52.2,28.95,South,184,0.0,6.0,49,0.00,,---,0.00,VWS V12.08,2013-04-30 13:25:00,
2013-04-30 08:31:00,72.6,51.8,28.94,WSW,250,0.0,3.0,48,0.00,,---,0.00,VWS V12.08,2013-04-30 13:31:00,
2013-04-30 08:36:00,72.7,51.9,28.94,SW,225,0.0,4.0,48,0.00,,---,0.00,VWS V12.08,2013-04-30 13:36:00,
2013-04-30 08:41:00,72.9,51.5,28.95,SSW,203,0.0,4.0,47,0.00,,---,0.00,VWS V12.08,2013-04-30 13:41:00,
2013-04-30 08:46:00,73.1,51.1,28.95,WSW,238,1.0,7.0,46,0.00,,---,0.00,VWS V12.08,2013-04-30 13:46:00,
2013-04-30 08:52:00,73.4,51.4,28.95,SW,230,2.0,7.0,46,0.00,,---,0.00,VWS V12.08,2013-04-30 13:52:00,
2013-04-30 08:57:00,73.6,51.0,28.96,SW,228,2.0,7.0,45,0.00,,---,0.00,VWS V12.08,2013-04-30 13:57:00,
2013-04-30 09:02:00,73.9,51.2,28.95,SW,214,0.0,2.0,45,0.00,,---,0.00,VWS V12.08,2013-04-30 14:02:00,
2013-04-30 09:07:00,74.1,51.4,28.95,South,183,0.0,3.0,45,0.00,,---,0.00,VWS V12.08,2013-04-30 14:07:00,
2013-04-30 09:13:00,74.3,51.0,28.96,WSW,241,2.0,5.0,44,0.00,,---,0.00,VWS V12.08,2013-04-30 14:13:00,
2013-04-30 09:18:00,74.6,50.7,28.96,SSW,208,1.0,6.0,43,0.00,,---,0.00,VWS V12.08,2013-04-30 14:18:00,
2013-04-30 09:23:00,74.9,50.9,28.96,SSW,209,0.0,6.0,43,0.00,,---,0.00,VWS V12.08,2013-04-30 14:23:00,
2013-04-30 09:28:00,75.2,50.6,28.95,South,176,2.0,6.0,42,0.00,,---,0.00,VWS V12.08,2013-04-30 14:28:00,
2013-04-30 09:33:00,75.5,50.8,28.95,SSW,210,1.0,4.0,42,0.00,,---,0.00,VWS V12.08,2013-04-30 14:33:00,
2013-04-30 09:38:00,75.6,50.3,28.96,SW,225,0.0,5.0,41,0.00,,---,0.00,VWS V12.08,2013-04-30 14:38:00,
2013-04-30 09:43:00,75.7,50.4,28.96,SW,215,1.0,5.0,41,0.00,,---,0.00,VWS V12.08,2013-04-30 14:43:00,
2013-04-30 09:48:00,76.0,50.0,28.96,SSW,203,2.0,5.0,40,0.00,,---,0.00,VWS V12.08,2013-04-30 14:48:00,
2013-04-30 09:53:00,76.1,50.0,28.96,SW,233,0.0,7.0,40,0.00,,---,0.00,VWS V12.08,2013-04-30 14:53:00,
2013-04-30 09:58:00,76.0,50.0,28.97,SW,233,3.0,7.0,40,0.00,,---,0.00,VWS V12.08,2013-04-30 14:58:00,
2013-04-30 10:03:00,76.3,50.2,28.96,South,187,1.0,11.0,40,0.00,,---,0.00,VWS V12.08,2013-04-30 15:03:00,
2013-04-30 10:08:00,76.6,49.8,28.97,SW,223,3.0,11.0,39,0.00,,---,0.00,VWS V12.08,2013-04-30 15:08:00,
2013-04-30 10:13:00,76.6,49.8,28.96,SW,235,3.0,11.0,39,0.00,,---,0.00,VWS V12.08,2013-04-30 15:13:00,
2013-04-30 10:18:00,76.6,49.8,28.97,WSW,256,0.0,11.0,39,0.00,,---,0.00,VWS V12.08,2013-04-30 15:18:00,
2013-04-30 10:24:00,76.8,49.3,28.98,WSW,247,2.0,11.0,38,0.00,,---,0.00,VWS V12.08,2013-04-30 15:24:00,
2013-04-30 10:30:00,76.9,49.4,28.97,WSW,253,0.0,11.0,38,0.00,,---,0.00,VWS V12.08,2013-04-30 15:30:00,
2013-04-30 10:35:00,77.1,49.6,28.97,SW,228,1.0,12.0,38,0.00,,---,0.00,VWS V12.08,2013-04-30 15:35:00,
2013-04-30 10:40:00,77.1,50.3,28.97,WSW,249,0.0,12.0,39,0.00,,---,0.00,VWS V12.08,2013-04-30 15:40:00,
2013-04-30 10:45:00,77.3,50.4,28.97,West,259,0.0,12.0,39,0.00,,---,0.00,VWS V12.08,2013-04-30 15:45:00,
2013-04-30 10:50:00,77.7,50.8,28.96,SW,234,1.0,12.0,39,0.00,,---,0.00,VWS V12.08,2013-04-30 15:50:00,
2013-04-30 10:55:00,77.9,51.0,28.97,SSE,168,0.0,12.0,39,0.00,,---,0.00,VWS V12.08,2013-04-30 15:55:00,
2013-04-30 11:02:00,78.6,50.9,28.97,SW,233,0.0,3.0,38,0.00,,---,0.00,VWS V12.08,2013-04-30 16:02:00,
2013-04-30 11:07:00,78.8,51.1,28.96,South,171,1.0,7.0,38,0.00,,---,0.00,VWS V12.08,2013-04-30 16:07:00,
2013-04-30 11:12:00,78.6,50.2,28.97,SW,227,0.0,7.0,37,0.00,,---,0.00,VWS V12.08,2013-04-30 16:12:00,
2013-04-30 11:17:00,78.7,49.5,28.96,WSW,241,1.0,7.0,36,0.00,,---,0.00,VWS V12.08,2013-04-30 16:17:00,
2013-04-30 11:22:00,78.9,50.4,28.97,SW,236,0.0,7.0,37,0.00,,---,0.00,VWS V12.08,2013-04-30 16:22:00,
2013-04-30 11:28:00,79.6,51.1,28.97,SW,230,0.0,11.0,37,0.00,,---,0.00,VWS V12.08,2013-04-30 16:28:00,
2013-04-30 11:33:00,80.2,50.8,28.97,WSW,249,1.0,3.0,36,0.00,,---,0.00,VWS V12.08,2013-04-30 16:33:00,
2013-04-30 11:38:00,80.4,51.0,28.97,SW,215,0.0,3.0,36,0.00,,---,0.00,VWS V12.08,2013-04-30 16:38:00,
2013-04-30 11:43:00,80.4,51.8,28.97,South,184,6.0,9.0,37,0.00,,---,0.00,VWS V12.08,2013-04-30 16:43:00,
2013-04-30 11:49:00,80.5,51.9,28.96,WSW,239,0.0,9.0,37,0.00,,---,0.00,VWS V12.08,2013-04-30 16:49:00,
2013-04-30 11:54:00,80.4,51.0,28.96,SSW,192,2.0,11.0,36,0.00,,---,0.00,VWS V12.08,2013-04-30 16:54:00,
2013-04-30 11:59:00,80.5,50.4,28.97,SW,216,3.0,11.0,35,0.00,,---,0.00,VWS V12.08,2013-04-30 16:59:00,
2013-04-30 12:04:00,80.5,51.1,28.96,WSW,246,0.0,5.0,36,0.00,,---,0.00,VWS V12.08,2013-04-30 17:04:00,
2013-04-30 12:10:00,80.9,50.7,28.96,South,190,0.0,5.0,35,0.00,,---,0.00,VWS V12.08,2013-04-30 17:10:00,
2013-04-30 12:15:00,81.2,50.2,28.96,SSW,213,0.0,5.0,34,0.00,,---,0.00,VWS V12.08,2013-04-30 17:15:00,
2013-04-30 12:21:00,81.6,51.3,28.96,SW,226,0.0,5.0,35,0.00,,---,0.00,VWS V12.08,2013-04-30 17:21:00,
2013-04-30 12:26:00,81.6,50.5,28.95,SSW,198,0.0,5.0,34,0.00,,---,0.00,VWS V12.08,2013-04-30 17:26:00,
2013-04-30 12:32:00,81.9,51.6,28.95,SW,236,0.0,4.0,35,0.00,,---,0.00,VWS V12.08,2013-04-30 17:32:00,
2013-04-30 12:38:00,82.2,50.3,28.95,SW,234,1.0,4.0,33,0.00,,---,0.00,VWS V12.08,2013-04-30 17:38:00,
2013-04-30 12:44:00,82.5,50.5,28.95,WSW,249,0.0,4.0,33,0.00,,---,0.00,VWS V12.08,2013-04-30 17:44:00,
2013-04-30 12:49:00,82.8,50.8,28.95,SSW,206,0.0,4.0,33,0.00,,---,0.00,VWS V12.08,2013-04-30 17:49:00,
2013-04-30 12:54:00,83.3,51.2,28.95,SW,226,1.0,4.0,33,0.00,,---,0.00,VWS V12.08,2013-04-30 17:54:00,
2013-04-30 12:59:00,83.0,51.0,28.95,SW,231,0.0,4.0,33,0.00,,---,0.00,VWS V12.08,2013-04-30 17:59:00,
2013-04-30 13:04:00,82.9,51.7,28.95,SSW,194,0.0,3.0,34,0.00,,---,0.00,VWS V12.08,2013-04-30 18:04:00,
2013-04-30 13:09:00,83.6,52.3,28.95,South,177,0.0,3.0,34,0.00,,---,0.00,VWS V12.08,2013-04-30 18:09:00,
2013-04-30 13:14:00,83.8,51.7,28.95,SW,214,1.0,3.0,33,0.00,,---,0.00,VWS V12.08,2013-04-30 18:14:00,
2013-04-30 13:19:00,83.5,52.2,28.95,South,172,1.0,5.0,34,0.00,,---,0.00,VWS V12.08,2013-04-30 18:19:00,
2013-04-30 13:24:00,83.6,52.3,28.95,SW,215,1.0,5.0,34,0.00,,---,0.00,VWS V12.08,2013-04-30 18:24:00,
2013-04-30 13:30:00,83.8,51.7,28.95,SSE,158,0.0,5.0,33,0.00,,---,0.00,VWS V12.08,2013-04-30 18:30:00,
2013-04-30 13:36:00,83.6,51.5,28.95,SE,137,0.0,3.0,33,0.00,,---,0.00,VWS V12.08,2013-04-30 18:36:00,
2013-04-30 13:41:00,84.2,52.0,28.95,South,179,0.0,3.0,33,0.00,,---,0.00,VWS V12.08,2013-04-30 18:41:00,
2013-04-30 13:46:00,84.3,52.1,28.95,SW,220,1.0,3.0,33,0.00,,---,0.00,VWS V12.08,2013-04-30 18:46:00,
2013-04-30 13:51:00,84.3,52.1,28.95,South,189,0.0,7.0,33,0.00,,---,0.00,VWS V12.08,2013-04-30 18:51:00,
2013-04-30 13:56:00,84.4,52.2,28.95,WSW,237,2.0,7.0,33,0.00,,---,0.00,VWS V12.08,2013-04-30 18:56:00,
2013-04-30 14:01:00,84.6,52.4,28.96,WSW,240,0.0,2.0,33,0.00,,---,0.00,VWS V12.08,2013-04-30 19:01:00,
2013-04-30 14:06:00,84.3,52.1,28.96,South,189,0.0,2.0,33,0.00,,---,0.00,VWS V12.08,2013-04-30 19:06:00,
2013-04-30 14:11:00,84.7,52.4,28.96,SSE,148,0.0,5.0,33,0.00,,---,0.00,VWS V12.08,2013-04-30 19:11:00,
2013-04-30 14:16:00,84.6,51.5,28.96,SW,236,0.0,5.0,32,0.00,,---,0.00,VWS V12.08,2013-04-30 19:16:00,
2013-04-30 14:22:00,84.5,52.3,28.96,SW,225,0.0,6.0,33,0.00,,---,0.00,VWS V12.08,2013-04-30 19:22:00,
2013-04-30 14:27:00,84.4,53.0,28.96,South,174,0.0,6.0,34,0.00,,---,0.00,VWS V12.08,2013-04-30 19:27:00,
2013-04-30 14:33:00,84.2,52.8,28.96,South,174,0.0,3.0,34,0.00,,---,0.00,VWS V12.08,2013-04-30 19:33:00,
2013-04-30 14:39:00,84.4,53.0,28.96,WSW,241,0.0,4.0,34,0.00,,---,0.00,VWS V12.08,2013-04-30 19:39:00,
2013-04-30 14:44:00,84.9,52.6,28.96,WSW,245,0.0,4.0,33,0.00,,---,0.00,VWS V12.08,2013-04-30 19:44:00,
2013-04-30 14:50:00,84.6,52.4,28.96,SW,222,1.0,4.0,33,0.00,,---,0.00,VWS V12.08,2013-04-30 19:50:00,
2013-04-30 14:55:00,84.6,53.2,28.96,South,181,0.0,4.0,34,0.00,,---,0.00,VWS V12.08,2013-04-30 19:55:00,
2013-04-30 15:01:00,84.7,53.3,28.96,WNW,282,1.0,1.0,34,0.00,,---,0.00,VWS V12.08,2013-04-30 20:01:00,
2013-04-30 15:06:00,84.9,52.6,28.96,SW,218,1.0,3.0,33,0.00,,---,0.00,VWS V12.08,2013-04-30 20:06:00,
2013-04-30 15:11:00,84.7,52.4,28.96,SW,235,0.0,4.0,33,0.00,,---,0.00,VWS V12.08,2013-04-30 20:11:00,
2013-04-30 15:17:00,84.5,52.3,28.96,South,171,0.0,4.0,33,0.00,,---,0.00,VWS V12.08,2013-04-30 20:17:00,
2013-04-30 15:22:00,84.4,53.8,28.96,SSW,208,0.0,4.0,35,0.00,,---,0.00,VWS V12.08,2013-04-30 20:22:00,
2013-04-30 15:29:00,84.8,53.3,28.96,South,176,0.0,4.0,34,0.00,,---,0.00,VWS V12.08,2013-04-30 20:29:00,
2013-04-30 15:35:00,84.9,52.6,28.96,SW,222,1.0,3.0,33,0.00,,---,0.00,VWS V12.08,2013-04-30 20:35:00,
2013-04-30 15:40:00,84.8,53.3,28.96,SW,228,0.0,4.0,34,0.00,,---,0.00,VWS V12.08,2013-04-30 20:40:00,
2013-04-30 15:45:00,84.7,52.4,28.96,SSW,200,0.0,6.0,33,0.00,,---,0.00,VWS V12.08,2013-04-30 20:45:00,
2013-04-30 15:51:00,84.7,52.4,28.97,SW,229,0.0,6.0,33,0.00,,---,0.00,VWS V12.08,2013-04-30 20:51:00,
2013-04-30 15:56:00,84.5,52.3,28.96,SSW,203,0.0,6.0,33,0.00,,---,0.00,VWS V12.08,2013-04-30 20:56:00,
2013-04-30 16:01:00,84.7,52.4,28.96,WSW,244,0.0,2.0,33,0.00,,---,0.00,VWS V12.08,2013-04-30 21:01:00,
2013-04-30 16:07:00,84.7,52.4,28.97,WNW,284,0.0,5.0,33,0.00,,---,0.00,VWS V12.08,2013-04-30 21:07:00,
2013-04-30 16:12:00,84.8,52.5,28.97,SW,236,1.0,5.0,33,0.00,,---,0.00,VWS V12.08,2013-04-30 21:12:00,
2013-04-30 16:18:00,84.5,51.4,28.97,SW,215,1.0,5.0,32,0.00,,---,0.00,VWS V12.08,2013-04-30 21:18:00,
2013-04-30 16:23:00,84.3,51.3,28.97,SSW,213,2.0,5.0,32,0.00,,---,0.00,VWS V12.08,2013-04-30 21:23:00,
2013-04-30 16:30:00,84.2,50.3,28.97,South,191,0.0,6.0,31,0.00,,---,0.00,VWS V12.08,2013-04-30 21:30:00,
2013-04-30 16:35:00,84.3,49.5,28.97,South,185,0.0,4.0,30,0.00,,---,0.00,VWS V12.08,2013-04-30 21:35:00,
2013-04-30 16:40:00,84.5,49.7,28.97,SSW,202,1.0,9.0,30,0.00,,---,0.00,VWS V12.08,2013-04-30 21:40:00,
2013-04-30 16:45:00,84.3,49.5,28.98,South,178,0.0,11.0,30,0.00,,---,0.00,VWS V12.08,2013-04-30 21:45:00,
2013-04-30 16:51:00,84.3,50.4,28.98,West,270,0.0,11.0,31,0.00,,---,0.00,VWS V12.08,2013-04-30 21:51:00,
2013-04-30 16:56:00,84.6,51.5,28.98,SSW,210,1.0,11.0,32,0.00,,---,0.00,VWS V12.08,2013-04-30 21:56:00,
2013-04-30 17:01:00,84.5,51.4,28.98,SSW,202,1.0,2.0,32,0.00,,---,0.00,VWS V12.08,2013-04-30 22:01:00,
2013-04-30 17:07:00,84.2,51.2,28.98,SSE,167,0.0,5.0,32,0.00,,---,0.00,VWS V12.08,2013-04-30 22:07:00,
2013-04-30 17:12:00,84.3,51.3,28.98,SSW,195,1.0,6.0,32,0.00,,---,0.00,VWS V12.08,2013-04-30 22:12:00,
2013-04-30 17:18:00,84.3,51.3,28.98,SSW,199,1.0,6.0,32,0.00,,---,0.00,VWS V12.08,2013-04-30 22:18:00,
2013-04-30 17:24:00,84.2,51.2,28.98,SE,142,0.0,6.0,32,0.00,,---,0.00,VWS V12.08,2013-04-30 22:24:00,
2013-04-30 17:29:00,84.4,52.2,28.99,WSW,246,0.0,6.0,33,0.00,,---,0.00,VWS V12.08,2013-04-30 22:29:00,
2013-04-30 17:35:00,84.1,51.1,28.99,SSE,160,0.0,5.0,32,0.00,,---,0.00,VWS V12.08,2013-04-30 22:35:00,
2013-04-30 17:41:00,84.1,51.1,28.99,WSW,237,2.0,6.0,32,0.00,,---,0.00,VWS V12.08,2013-04-30 22:41:00,
2013-04-30 17:46:00,83.9,50.9,28.99,South,183,0.0,6.0,32,0.00,,---,0.00,VWS V12.08,2013-04-30 22:46:00,
2013-04-30 17:51:00,83.7,51.6,28.99,SW,230,2.0,10.0,33,0.00,,---,0.00,VWS V12.08,2013-04-30 22:51:00,
2013-04-30 17:56:00,83.8,51.7,29.00,ENE,70,1.0,10.0,33,0.00,,---,0.00,VWS V12.08,2013-04-30 22:56:00,
2013-04-30 18:02:00,83.7,51.6,29.00,SSE,164,1.0,3.0,33,0.00,,---,0.00,VWS V12.08,2013-04-30 23:02:00,
2013-04-30 18:07:00,83.2,51.1,29.00,SW,230,1.0,3.0,33,0.00,,---,0.00,VWS V12.08,2013-04-30 23:07:00,
2013-04-30 18:13:00,83.1,51.0,29.00,SSW,211,1.0,5.0,33,0.00,,---,0.00,VWS V12.08,2013-04-30 23:13:00,
2013-04-30 18:19:00,82.7,50.7,29.00,SW,231,0.0,5.0,33,0.00,,---,0.00,VWS V12.08,2013-04-30 23:19:00,
2013-04-30 18:25:00,82.4,51.2,29.01,SW,223,1.0,5.0,34,0.00,,---,0.00,VWS V12.08,2013-04-30 23:25:00,
2013-04-30 18:31:00,82.2,51.1,29.01,WSW,243,1.0,3.0,34,0.00,,---,0.00,VWS V12.08,2013-04-30 23:31:00,
2013-04-30 18:37:00,81.9,50.0,29.01,South,180,0.0,4.0,33,0.00,,---,0.00,VWS V12.08,2013-04-30 23:37:00,
2013-04-30 18:43:00,81.6,49.7,29.01,South,174,0.0,4.0,33,0.00,,---,0.00,VWS V12.08,2013-04-30 23:43:00,
2013-04-30 18:48:00,81.3,49.5,29.01,SW,236,0.0,4.0,33,0.00,,---,0.00,VWS V12.08,2013-04-30 23:48:00,
2013-04-30 18:53:00,81.0,49.2,29.01,SSW,204,0.0,5.0,33,0.00,,---,0.00,VWS V12.08,2013-04-30 23:53:00,
2013-04-30 18:58:00,80.7,49.0,29.01,SSW,194,0.0,5.0,33,0.00,,---,0.00,VWS V12.08,2013-04-30 23:58:00,
2013-04-30 19:03:00,80.6,48.9,29.01,SSE,164,1.0,1.0,33,0.00,,---,0.00,VWS V12.08,2013-05-01 00:03:00,
2013-04-30 19:08:00,80.6,48.9,29.01,South,189,0.0,2.0,33,0.00,,---,0.00,VWS V12.08,2013-05-01 00:08:00,
2013-04-30 19:13:00,80.5,49.6,29.01,South,179,0.0,2.0,34,0.00,,---,0.00,VWS V12.08,2013-05-01 00:13:00,
2013-04-30 19:19:00,80.3,50.2,29.02,West,265,0.0,2.0,35,0.00,,---,0.00,VWS V12.08,2013-05-01 00:19:00,
2013-04-30 19:24:00,80.1,50.0,29.02,South,183,0.0,2.0,35,0.00,,---,0.00,VWS V12.08,2013-05-01 00:24:00,
2013-04-30 19:29:00,79.8,49.7,29.02,SSE,164,0.0,2.0,35,0.00,,---,0.00,VWS V12.08,2013-05-01 00:29:00,
2013-04-30 19:35:00,79.5,50.2,29.02,South,189,0.0,1.0,36,0.00,,---,0.00,VWS V12.08,2013-05-01 00:35:00,
2013-04-30 19:40:00,79.3,50.1,29.02,SSW,194,0.0,1.0,36,0.00,,---,0.00,VWS V12.08,2013-05-01 00:40:00,
2013-04-30 19:45:00,79.0,50.5,29.02,WSW,240,0.0,1.0,37,0.00,,---,0.00,VWS V12.08,2013-05-01 00:45:00,
2013-04-30 19:50:00,78.7,49.5,29.03,SSW,195,0.0,1.0,36,0.00,,---,0.00,VWS V12.08,2013-05-01 00:50:00,
2013-04-30 19:55:00,78.4,49.3,29.03,WSW,242,0.0,1.0,36,0.00,,---,0.00,VWS V12.08,2013-05-01 00:55:00,
2013-04-30 20:01:00,78.2,49.1,29.03,SW,215,0.0,1.0,36,0.00,,---,0.00,VWS V12.08,2013-05-01 01:01:00,
2013-04-30 20:07:00,77.9,49.6,29.03,SSW,201,0.0,1.0,37,0.00,,---,0.00,VWS V12.08,2013-05-01 01:07:00,
2013-04-30 20:12:00,77.6,48.6,29.03,South,169,0.0,1.0,36,0.00,,---,0.00,VWS V12.08,2013-05-01 01:12:00,
2013-04-30 20:18:00,77.3,49.0,29.03,SSW,200,0.0,1.0,37,0.00,,---,0.00,VWS V12.08,2013-05-01 01:18:00,
2013-04-30 20:24:00,77.0,48.8,29.03,South,171,0.0,1.0,37,0.00,,---,0.00,VWS V12.08,2013-05-01 01:24:00,
2013-04-30 20:29:00,76.7,48.5,29.04,South,177,0.0,1.0,37,0.00,,---,0.00,VWS V12.08,2013-05-01 01:29:00,
2013-04-30 20:34:00,76.5,49.0,29.04,WSW,238,0.0,1.0,38,0.00,,---,0.00,VWS V12.08,2013-05-01 01:34:00,
2013-04-30 20:39:00,76.3,48.8,29.03,SSW,192,0.0,1.0,38,0.00,,---,0.00,VWS V12.08,2013-05-01 01:39:00,
2013-04-30 20:44:00,76.1,48.7,29.04,WNW,283,0.0,1.0,38,0.00,,---,0.00,VWS V12.08,2013-05-01 01:44:00,
2013-04-30 20:50:00,75.8,49.1,29.04,SW,217,0.0,1.0,39,0.00,,---,0.00,VWS V12.08,2013-05-01 01:50:00,
2013-04-30 20:56:00,75.5,48.8,29.04,South,185,0.0,1.0,39,0.00,,---,0.00,VWS V12.08,2013-05-01 01:56:00,
2013-04-30 21:02:00,75.2,49.2,29.04,South,185,0.0,1.0,40,0.00,,---,0.00,VWS V12.08,2013-05-01 02:02:00,
2013-04-30 21:07:00,74.9,49.0,29.04,SSW,204,0.0,1.0,40,0.00,,---,0.00,VWS V12.08,2013-05-01 02:07:00,
2013-04-30 21:12:00,74.7,49.5,29.04,South,183,0.0,1.0,41,0.00,,---,0.00,VWS V12.08,2013-05-01 02:12:00,
2013-04-30 21:17:00,74.4,49.2,29.04,SSE,167,0.0,1.0,41,0.00,,---,0.00,VWS V12.08,2013-05-01 02:17:00,
2013-04-30 21:22:00,74.3,49.8,29.05,South,174,0.0,1.0,42,0.00,,---,0.00,VWS V12.08,2013-05-01 02:22:00,
2013-04-30 21:27:00,74.1,49.6,29.05,South,184,0.0,1.0,42,0.00,,---,0.00,VWS V12.08,2013-05-01 02:27:00,
2013-04-30 21:32:00,74.0,49.5,29.05,SSW,193,0.0,0.0,42,0.00,,---,0.00,VWS V12.08,2013-05-01 02:32:00,
2013-04-30 21:37:00,73.9,50.0,29.06,SSE,167,0.0,0.0,43,0.00,,---,0.00,VWS V12.08,2013-05-01 02:37:00,
2013-04-30 21:42:00,73.9,50.0,29.06,South,190,0.0,1.0,43,0.00,,---,0.00,VWS V12.08,2013-05-01 02:42:00,
2013-04-30 21:48:00,73.8,49.9,29.07,SSW,202,0.0,1.0,43,0.00,,---,0.00,VWS V12.08,2013-05-01 02:48:00,
2013-04-30 21:53:00,73.7,49.8,29.07,SSW,194,0.0,1.0,43,0.00,,---,0.00,VWS V12.08,2013-05-01 02:53:00,
2013-04-30 21:59:00,73.5,50.3,29.07,SSW,202,0.0,1.0,44,0.00,,---,0.00,VWS V12.08,2013-05-01 02:59:00,
2013-04-30 22:04:00,73.2,50.0,29.07,SSW,205,0.0,0.0,44,0.00,,---,0.00,VWS V12.08,2013-05-01 03:04:00,
2013-04-30 22:09:00,73.0,49.8,29.08,SSW,203,0.0,0.0,44,0.00,,---,0.00,VWS V12.08,2013-05-01 03:09:00,
2013-04-30 22:14:00,72.8,50.2,29.08,South,184,0.0,0.0,45,0.00,,---,0.00,VWS V12.08,2013-05-01 03:14:00,
2013-04-30 22:20:00,72.6,50.1,29.08,South,187,0.0,0.0,45,0.00,,---,0.00,VWS V12.08,2013-05-01 03:20:00,
2013-04-30 22:25:00,72.5,50.0,29.08,South,170,0.0,0.0,45,0.00,,---,0.00,VWS V12.08,2013-05-01 03:25:00,
2013-04-30 22:31:00,72.4,49.9,29.08,South,190,0.0,0.0,45,0.00,,---,0.00,VWS V12.08,2013-05-01 03:31:00,
2013-04-30 22:36:00,72.3,50.4,29.09,South,173,0.0,0.0,46,0.00,,---,0.00,VWS V12.08,2013-05-01 03:36:00,
2013-04-30 22:41:00,72.1,50.2,29.09,SW,233,0.0,1.0,46,0.00,,---,0.00,VWS V12.08,2013-05-01 03:41:00,
2013-04-30 22:46:00,72.0,50.7,29.09,South,177,0.0,1.0,47,0.00,,---,0.00,VWS V12.08,2013-05-01 03:46:00,
2013-04-30 22:52:00,71.7,50.4,29.09,South,179,0.0,1.0,47,0.00,,---,0.00,VWS V12.08,2013-05-01 03:52:00,
2013-04-30 22:57:00,71.7,50.4,29.09,South,171,0.0,1.0,47,0.00,,---,0.00,VWS V12.08,2013-05-01 03:57:00,
2013-04-30 23:01:00,71.6,50.3,29.09,South,188,0.0,1.0,47,0.00,,---,0.00,VWS V12.08,2013-05-01 04:01:00,
2013-04-30 23:02:00,71.7,50.4,29.09,South,169,0.0,1.0,47,0.00,,---,0.00,VWS V12.08,2013-05-01 04:02:00,
2013-04-30 23:05:00,71.6,50.9,29.09,SSE,158,0.0,1.0,48,0.00,,---,0.00,VWS V12.08,2013-05-01 04:05:00,
2013-04-30 23:06:00,71.6,50.3,29.09,South,177,0.0,1.0,47,0.00,,---,0.00,VWS V12.08,2013-05-01 04:06:00,
2013-04-30 23:07:00,71.6,50.3,29.09,South,178,0.0,1.0,47,0.00,,---,0.00,VWS V12.08,2013-05-01 04:07:00,
2013-04-30 23:12:00,71.5,50.8,29.09,SSE,156,0.0,1.0,48,0.00,,---,0.00,VWS V12.08,2013-05-01 04:12:00,
2013-04-30 23:17:00,71.4,50.7,29.09,SE,135,0.0,1.0,48,0.00,,---,0.00,VWS V12.08,2013-05-01 04:17:00,
2013-04-30 23:22:00,71.2,50.5,29.08,SE,146,0.0,1.0,48,0.00,,---,0.00,VWS V12.08,2013-05-01 04:22:00,
2013-04-30 23:27:00,71.1,51.0,29.08,SSW,203,0.0,1.0,49,0.00,,---,0.00,VWS V12.08,2013-05-01 04:27:00,
2013-04-30 23:32:00,71.1,50.4,29.09,South,178,0.0,0.0,48,0.00,,---,0.00,VWS V12.08,2013-05-01 04:32:00,
2013-04-30 23:37:00,71.1,51.0,29.10,NNW,332,0.0,0.0,49,0.00,,---,0.00,VWS V12.08,2013-05-01 04:37:00,
2013-04-30 23:43:00,71.0,50.9,29.10,NW,324,0.0,0.0,49,0.00,,---,0.00,VWS V12.08,2013-05-01 04:43:00,
2013-04-30 23:48:00,71.5,50.8,29.10,NNW,338,0.0,1.0,48,0.00,,---,0.00,VWS V12.08,2013-05-01 04:48:00,
2013-04-30 23:53:00,72.1,50.8,29.10,WSW,243,0.0,1.0,47,0.00,,---,0.00,VWS V12.08,2013-05-01 04:53:00,
2013-04-30 23:58:00,72.5,50.6,29.10,SW,231,0.0,1.0,46,0.00,,---,0.00,VWS V12.08,2013-05-01 04:58:00,